TimeCDT,TemperatureF,Dew PointF,Humidity,Sea Level PressureIn,VisibilityMPH,Wind Direction,Wind SpeedMPH,Gust SpeedMPH,PrecipitationIn,Events,Conditions,WindDirDegrees,DateUTC
12:15 AM,71.6,64.4,78,29.88,10.0,South,16.1,-,N/A,,Scattered Clouds,170,2012-10-14 05:15:00
12:35 AM,71.6,64.4,78,29.87,10.0,South,13.8,-,N/A,,Scattered Clouds,170,2012-10-14 05:35:00
12:55 AM,71.6,64.4,78,29.86,10.0,SSE,15.0,-,N/A,,Mostly Cloudy,160,2012-10-14 05:55:00
1:15 AM,69.8,64.4,83,29.85,10.0,SSE,16.1,21.9,N/A,,Overcast,160,2012-10-14 06:15:00
2:35 AM,69.8,66.2,88,29.91,8.0,SSW,15.0,-,N/A,,Overcast,200,2012-10-14 07:35:00
2:55 AM,66.2,62.6,88,29.92,3.0,SSW,21.9,29.9,N/A,,Mostly Cloudy,210,2012-10-14 07:55:00
3:16 AM,64.4,62.6,94,29.89,10.0,South,15.0,-,N/A,,Mostly Cloudy,180,2012-10-14 08:16:00
3:35 AM,64.4,62.6,94,29.87,10.0,South,8.1,-,N/A,,Mostly Cloudy,180,2012-10-14 08:35:00
3:55 AM,64.4,62.6,94,29.87,10.0,South,12.7,-,0.09,,Mostly Cloudy,170,2012-10-14 08:55:00
4:16 AM,66.2,64.4,94,29.85,10.0,South,20.7,24.2,0.04,,Overcast,180,2012-10-14 09:16:00
4:35 AM,66.2,64.4,94,29.83,10.0,South,20.7,26.5,0.08,,Overcast,170,2012-10-14 09:35:00
4:55 AM,64.4,62.6,94,29.82,10.0,SSE,20.7,-,0.11,,Overcast,160,2012-10-14 09:55:00
5:35 AM,64.4,62.6,94,29.81,10.0,South,23.0,29.9,0.04,,Mostly Cloudy,170,2012-10-14 10:35:00
5:55 AM,64.4,62.6,94,29.81,10.0,South,24.2,32.2,0.04,,Scattered Clouds,170,2012-10-14 10:55:00
6:15 AM,62.6,62.6,100,29.79,10.0,SSE,23.0,31.1,N/A,,Partly Cloudy,160,2012-10-14 11:15:00
6:35 AM,62.6,60.8,94,29.84,10.0,South,19.6,26.5,N/A,,Clear,180,2012-10-14 11:35:00
6:55 AM,62.6,60.8,94,29.86,10.0,South,18.4,23.0,N/A,,Clear,190,2012-10-14 11:55:00
7:35 AM,62.6,60.8,94,29.86,10.0,South,17.3,-,N/A,,Overcast,190,2012-10-14 12:35:00
7:55 AM,62.6,60.8,94,29.85,10.0,South,19.6,24.2,N/A,,Overcast,180,2012-10-14 12:55:00
8:15 AM,64.4,60.8,88,29.86,10.0,South,20.7,-,N/A,,Overcast,190,2012-10-14 13:15:00
8:36 AM,64.4,62.6,94,29.86,10.0,South,24.2,29.9,N/A,,Overcast,180,2012-10-14 13:36:00
8:55 AM,64.4,62.6,94,29.86,10.0,South,23.0,31.1,N/A,,Overcast,180,2012-10-14 13:55:00
9:15 AM,64.4,62.6,94,29.86,10.0,SSW,25.3,33.4,N/A,,Overcast,200,2012-10-14 14:15:00
9:55 AM,66.2,62.6,88,29.88,10.0,SSW,24.2,34.5,N/A,,Overcast,210,2012-10-14 14:55:00
10:15 AM,66.2,62.6,88,29.89,10.0,SSW,24.2,32.2,N/A,,Overcast,210,2012-10-14 15:15:00
10:35 AM,66.2,62.6,88,29.89,10.0,SSW,24.2,35.7,N/A,,Overcast,210,2012-10-14 15:35:00
10:55 AM,69.8,62.6,78,29.89,10.0,SW,25.3,29.9,N/A,,Overcast,220,2012-10-14 15:55:00
11:35 AM,71.6,60.8,69,29.88,10.0,SSW,28.8,33.4,N/A,,Mostly Cloudy,210,2012-10-14 16:35:00
11:55 AM,71.6,60.8,69,29.88,10.0,SW,27.6,32.2,N/A,,Scattered Clouds,220,2012-10-14 16:55:00
12:15 PM,73.4,60.8,65,29.88,10.0,SW,25.3,33.4,N/A,,Scattered Clouds,220,2012-10-14 17:15:00
12:35 PM,73.4,60.8,65,29.87,10.0,SSW,25.3,29.9,N/A,,Mostly Cloudy,210,2012-10-14 17:35:00
12:55 PM,73.4,60.8,65,29.87,10.0,SW,23.0,29.9,N/A,,Scattered Clouds,230,2012-10-14 17:55:00
12:56 PM,73.4,60.8,65,29.87,10.0,SW,21.9,29.9,N/A,,Scattered Clouds,230,2012-10-14 17:56:00
1:15 PM,73.4,60.8,65,29.85,10.0,SSW,24.2,31.1,N/A,,Partly Cloudy,210,2012-10-14 18:15:00
1:35 PM,75.2,59.0,57,29.86,10.0,SW,20.7,26.5,N/A,,Scattered Clouds,220,2012-10-14 18:35:00
2:15 PM,75.2,57.2,53,29.85,10.0,SW,21.9,28.8,N/A,,Mostly Cloudy,230,2012-10-14 19:15:00
2:35 PM,77.0,57.2,50,29.85,10.0,SW,20.7,26.5,N/A,,Partly Cloudy,230,2012-10-14 19:35:00
2:55 PM,77.0,57.2,50,29.85,10.0,WSW,20.7,24.2,N/A,,Partly Cloudy,240,2012-10-14 19:55:00
3:16 PM,77.0,57.2,50,29.85,10.0,WSW,17.3,26.5,N/A,,Mostly Cloudy,250,2012-10-14 20:16:00
3:35 PM,-9999,-9999,N/A,29.86,10.0,West,25.3,28.8,N/A,,Mostly Cloudy,280,2012-10-14 20:35:00
4:35 PM,75.2,53.6,47,29.89,10.0,West,18.4,23.0,N/A,,Mostly Cloudy,270,2012-10-14 21:35:00
4:55 PM,75.2,53.6,47,29.90,10.0,West,18.4,23.0,N/A,,Scattered Clouds,280,2012-10-14 21:55:00
5:15 PM,73.4,53.6,50,29.90,10.0,West,15.0,-,N/A,,Clear,280,2012-10-14 22:15:00
5:36 PM,73.4,53.6,50,29.90,10.0,West,10.4,-,N/A,,Clear,270,2012-10-14 22:36:00
5:55 PM,71.6,53.6,53,29.91,10.0,West,9.2,-,N/A,,Clear,280,2012-10-14 22:55:00
6:15 PM,71.6,53.6,53,29.91,10.0,WNW,12.7,16.1,N/A,,Clear,290,2012-10-14 23:15:00
6:55 PM,68.0,53.6,60,29.93,10.0,WSW,8.1,-,N/A,,Clear,250,2012-10-14 23:55:00
7:15 PM,68.0,53.6,60,29.94,10.0,WSW,8.1,-,N/A,,Clear,250,2012-10-15 00:15:00
7:35 PM,66.2,53.6,64,29.95,10.0,WSW,6.9,-,N/A,,Clear,250,2012-10-15 00:35:00
7:56 PM,66.2,53.6,64,29.95,10.0,WSW,6.9,-,N/A,,Clear,240,2012-10-15 00:56:00
8:15 PM,66.2,53.6,64,29.95,10.0,WSW,6.9,-,N/A,,Clear,250,2012-10-15 01:15:00
8:35 PM,66.2,53.6,64,29.97,10.0,West,6.9,-,N/A,,Clear,260,2012-10-15 01:35:00
8:55 PM,64.4,53.6,68,29.97,10.0,WSW,5.8,-,N/A,,Clear,250,2012-10-15 01:55:00
9:15 PM,64.4,53.6,68,29.97,10.0,West,4.6,-,N/A,,Clear,260,2012-10-15 02:15:00
9:35 PM,-9999,-9999,N/A,29.98,10.0,WSW,5.8,-,N/A,,Clear,250,2012-10-15 02:35:00
9:55 PM,62.6,53.6,72,29.99,10.0,SW,5.8,-,N/A,,Clear,230,2012-10-15 02:55:00
10:16 PM,62.6,53.6,72,29.99,10.0,WSW,5.8,-,N/A,,Clear,240,2012-10-15 03:16:00
10:35 PM,62.6,53.6,72,29.99,10.0,WSW,5.8,-,N/A,,Clear,240,2012-10-15 03:35:00
10:55 PM,60.8,53.6,77,30.00,10.0,West,5.8,-,N/A,,Clear,260,2012-10-15 03:55:00
11:15 PM,62.6,51.8,68,30.00,10.0,West,6.9,-,N/A,,Clear,270,2012-10-15 04:15:00
11:55 PM,60.8,51.8,72,30.00,10.0,West,6.9,-,N/A,,Clear,270,2012-10-15 04:55:00